Time,TemperatureF,DewpointF,PressureIn,WindDirection,WindDirectionDegrees,WindSpeedMPH,WindSpeedGustMPH,Humidity,HourlyPrecipIn,Conditions,Clouds,dailyrainin,SoftwareType,DateUTC
2013-08-29 00:11:00,69.2,50.0,25.34,SE,130,1.0,1.0,50,0.00,,,0.00,weatherlink.com 1.10,2013-08-29 06:11:00,
2013-08-29 00:26:00,68.2,49.0,25.34,SE,129,1.0,1.0,51,0.00,,,0.00,weatherlink.com 1.10,2013-08-29 06:26:00,
2013-08-29 00:41:00,66.8,49.0,25.34,NW,316,0.0,3.0,53,0.00,,,0.00,weatherlink.com 1.10,2013-08-29 06:41:00,
2013-08-29 00:56:00,66.4,47.0,25.34,SW,222,1.0,3.0,50,0.00,,,0.00,weatherlink.com 1.10,2013-08-29 06:56:00,
2013-08-29 01:11:00,66.6,46.0,25.34,SW,232,1.0,3.0,48,0.00,,,0.00,weatherlink.com 1.10,2013-08-29 07:11:00,
2013-08-29 01:26:00,66.2,46.0,25.34,West,278,3.0,3.0,48,0.00,,,0.00,weatherlink.com 1.10,2013-08-29 07:26:00,
2013-08-29 01:41:00,66.3,46.0,25.33,WSW,245,3.0,3.0,48,0.00,,,0.00,weatherlink.com 1.10,2013-08-29 07:41:00,
2013-08-29 01:56:00,66.3,46.0,25.33,South,188,1.0,3.0,49,0.00,,,0.00,weatherlink.com 1.10,2013-08-29 07:56:00,
2013-08-29 02:11:00,65.6,47.0,25.32,SSW,203,1.0,1.0,51,0.00,,,0.00,weatherlink.com 1.10,2013-08-29 08:11:00,
2013-08-29 02:26:00,65.6,48.0,25.32,WSW,253,0.0,2.0,53,0.00,,,0.00,weatherlink.com 1.10,2013-08-29 08:26:00,
2013-08-29 02:41:00,64.1,46.0,25.33,West,270,5.0,5.0,53,0.00,,,0.00,weatherlink.com 1.10,2013-08-29 08:41:00,
2013-08-29 02:56:00,64.5,43.0,25.32,WNW,292,5.0,8.0,46,0.00,,,0.00,weatherlink.com 1.10,2013-08-29 08:56:00,
2013-08-29 03:11:00,63.9,43.0,25.33,West,262,1.0,4.0,47,0.00,,,0.00,weatherlink.com 1.10,2013-08-29 09:11:00,
2013-08-29 03:26:00,63.3,44.0,25.32,West,278,2.0,4.0,49,0.00,,,0.00,weatherlink.com 1.10,2013-08-29 09:26:00,
2013-08-29 03:41:00,62.7,44.0,25.32,West,271,0.0,3.0,51,0.00,,,0.00,weatherlink.com 1.10,2013-08-29 09:41:00,
2013-08-29 03:56:00,62.7,46.0,25.32,WNW,288,4.0,8.0,55,0.00,,,0.00,weatherlink.com 1.10,2013-08-29 09:56:00,
2013-08-29 04:11:00,62.5,46.0,25.32,West,262,4.0,7.0,56,0.00,,,0.00,weatherlink.com 1.10,2013-08-29 10:11:00,
2013-08-29 04:26:00,62.1,46.0,25.33,NW,321,2.0,4.0,56,0.00,,,0.00,weatherlink.com 1.10,2013-08-29 10:26:00,
2013-08-29 04:41:00,60.8,47.0,25.33,WSW,257,3.0,3.0,60,0.00,,,0.00,weatherlink.com 1.10,2013-08-29 10:41:00,
2013-08-29 04:56:00,61.6,47.0,25.33,WSW,257,4.0,6.0,59,0.00,,,0.00,weatherlink.com 1.10,2013-08-29 10:56:00,
2013-08-29 05:11:00,62.6,49.0,25.33,WSW,253,3.0,6.0,62,0.00,,,0.00,weatherlink.com 1.10,2013-08-29 11:11:00,
2013-08-29 05:26:00,62.9,49.0,25.33,West,270,6.0,6.0,60,0.00,,,0.00,weatherlink.com 1.10,2013-08-29 11:26:00,
2013-08-29 05:41:00,62.4,49.0,25.33,WNW,284,3.0,11.0,63,0.00,,,0.00,weatherlink.com 1.10,2013-08-29 11:41:00,
2013-08-29 05:56:00,62.5,49.0,25.33,West,276,3.0,7.0,62,0.00,,,0.00,weatherlink.com 1.10,2013-08-29 11:56:00,
2013-08-29 06:11:00,63.0,49.0,25.34,West,262,4.0,6.0,60,0.00,,,0.00,weatherlink.com 1.10,2013-08-29 12:11:00,
2013-08-29 06:26:00,-999.0,-99.9,0.00,North,-999,-999.0,-999.0,-999,0.00,,,0.00,weatherlink.com 1.10,2013-08-29 12:26:00,
2013-08-29 06:38:00,64.0,48.0,25.34,West,278,5.0,10.0,57,0.00,,,0.00,weatherlink.com 1.10,2013-08-29 12:38:00,
2013-08-29 06:53:00,64.4,49.0,25.35,West,280,3.0,7.0,57,0.00,,,0.00,weatherlink.com 1.10,2013-08-29 12:53:00,
2013-08-29 07:08:00,64.5,49.0,25.35,WSW,257,7.0,10.0,57,0.00,,,0.00,weatherlink.com 1.10,2013-08-29 13:08:00,
2013-08-29 07:23:00,64.8,49.0,25.35,WSW,248,4.0,8.0,58,0.00,,,0.00,weatherlink.com 1.10,2013-08-29 13:23:00,
2013-08-29 07:38:00,65.6,50.0,25.35,West,262,4.0,6.0,57,0.00,,,0.00,weatherlink.com 1.10,2013-08-29 13:38:00,
2013-08-29 07:53:00,68.0,50.0,25.35,West,260,4.0,7.0,52,0.00,,,0.00,weatherlink.com 1.10,2013-08-29 13:53:00,
2013-08-29 08:09:00,69.9,50.0,25.36,WSW,253,4.0,9.0,50,0.00,,,0.00,weatherlink.com 1.10,2013-08-29 14:09:00,
2013-08-29 08:24:00,72.2,51.0,25.36,West,259,3.0,8.0,47,0.00,,,0.00,weatherlink.com 1.10,2013-08-29 14:24:00,
2013-08-29 08:39:00,74.8,51.0,25.36,WNW,302,3.0,7.0,44,0.00,,,0.00,weatherlink.com 1.10,2013-08-29 14:39:00,
2013-08-29 08:54:00,79.1,53.0,25.36,WNW,302,2.0,4.0,40,0.00,,,0.00,weatherlink.com 1.10,2013-08-29 14:54:00,
2013-08-29 09:09:00,83.3,50.0,25.37,NW,309,5.0,9.0,32,0.00,,,0.00,weatherlink.com 1.10,2013-08-29 15:09:00,
2013-08-29 09:24:00,84.8,51.0,25.37,North,350,8.0,9.0,31,0.00,,,0.00,weatherlink.com 1.10,2013-08-29 15:24:00,
2013-08-29 09:40:00,86.1,49.0,25.37,NNW,333,10.0,16.0,28,0.00,,,0.00,weatherlink.com 1.10,2013-08-29 15:40:00,
2013-08-29 09:54:00,86.5,49.0,25.37,NNE,27,8.0,12.0,27,0.00,,,0.00,weatherlink.com 1.10,2013-08-29 15:54:00,
2013-08-29 10:09:00,86.9,50.0,25.37,NNE,22,7.0,14.0,28,0.00,,,0.00,weatherlink.com 1.10,2013-08-29 16:09:00,
2013-08-29 10:24:00,87.4,50.0,25.37,NNE,22,10.0,13.0,28,0.00,,,0.00,weatherlink.com 1.10,2013-08-29 16:24:00,
2013-08-29 10:39:00,88.2,49.0,25.37,NNW,346,5.0,13.0,26,0.00,,,0.00,weatherlink.com 1.10,2013-08-29 16:39:00,
2013-08-29 10:54:00,88.8,50.0,25.37,NNW,347,6.0,16.0,26,0.00,,,0.00,weatherlink.com 1.10,2013-08-29 16:54:00,
2013-08-29 11:09:00,89.2,49.0,25.37,North,359,15.0,16.0,25,0.00,,,0.00,weatherlink.com 1.10,2013-08-29 17:09:00,
2013-08-29 11:24:00,89.9,49.0,25.37,NNE,23,12.0,15.0,24,0.00,,,0.00,weatherlink.com 1.10,2013-08-29 17:24:00,
2013-08-29 11:39:00,90.9,49.0,25.37,NNE,32,7.0,15.0,24,0.00,,,0.00,weatherlink.com 1.10,2013-08-29 17:39:00,
2013-08-29 11:54:00,91.1,48.0,25.37,NW,315,8.0,18.0,23,0.00,,,0.00,weatherlink.com 1.10,2013-08-29 17:54:00,
2013-08-29 12:09:00,91.6,48.0,25.37,NNW,335,7.0,16.0,22,0.00,,,0.00,weatherlink.com 1.10,2013-08-29 18:09:00,
2013-08-29 12:24:00,92.1,49.0,25.36,NNE,18,14.0,16.0,23,0.00,,,0.00,weatherlink.com 1.10,2013-08-29 18:24:00,
2013-08-29 12:39:00,92.7,49.0,25.36,North,350,10.0,17.0,22,0.00,,,0.00,weatherlink.com 1.10,2013-08-29 18:39:00,
2013-08-29 12:54:00,92.7,49.0,25.36,NNE,15,11.0,16.0,22,0.00,,,0.00,weatherlink.com 1.10,2013-08-29 18:54:00,
2013-08-29 13:09:00,93.1,49.0,25.36,North,354,11.0,16.0,22,0.00,,,0.00,weatherlink.com 1.10,2013-08-29 19:09:00,
2013-08-29 13:24:00,93.8,48.0,25.36,North,356,6.0,15.0,21,0.00,,,0.00,weatherlink.com 1.10,2013-08-29 19:24:00,
2013-08-29 13:40:00,94.7,48.0,25.35,North,350,11.0,16.0,20,0.00,,,0.00,weatherlink.com 1.10,2013-08-29 19:40:00,
2013-08-29 13:55:00,95.0,48.0,25.36,NNW,333,11.0,12.0,20,0.00,,,0.00,weatherlink.com 1.10,2013-08-29 19:55:00,
2013-08-29 14:10:00,96.1,49.0,25.36,NW,321,7.0,13.0,20,0.00,,,0.00,weatherlink.com 1.10,2013-08-29 20:10:00,
2013-08-29 14:25:00,95.1,48.0,25.35,NNE,25,6.0,16.0,20,0.00,,,0.00,weatherlink.com 1.10,2013-08-29 20:25:00,
2013-08-29 14:40:00,94.9,49.0,25.35,North,11,3.0,17.0,21,0.00,,,0.00,weatherlink.com 1.10,2013-08-29 20:40:00,
2013-08-29 14:55:00,94.7,48.0,25.35,North,5,4.0,16.0,20,0.00,,,0.00,weatherlink.com 1.10,2013-08-29 20:55:00,
2013-08-29 15:10:00,95.2,47.0,25.34,NNW,333,5.0,15.0,19,0.00,,,0.00,weatherlink.com 1.10,2013-08-29 21:10:00,
2013-08-29 15:25:00,95.9,49.0,25.34,NW,312,7.0,11.0,20,0.00,,,0.00,weatherlink.com 1.10,2013-08-29 21:25:00,
2013-08-29 15:40:00,95.3,47.0,25.34,NNW,335,6.0,22.0,19,0.00,,,0.00,weatherlink.com 1.10,2013-08-29 21:40:00,
2013-08-29 15:55:00,95.8,47.0,25.34,NNW,340,7.0,14.0,19,0.00,,,0.00,weatherlink.com 1.10,2013-08-29 21:55:00,
2013-08-29 16:10:00,95.8,47.0,25.34,NNE,23,5.0,14.0,19,0.00,,,0.00,weatherlink.com 1.10,2013-08-29 22:10:00,
2013-08-29 16:25:00,95.2,48.0,25.33,NW,323,6.0,10.0,20,0.00,,,0.00,weatherlink.com 1.10,2013-08-29 22:25:00,
2013-08-29 16:40:00,96.2,48.0,25.33,NNW,333,6.0,13.0,19,0.00,,,0.00,weatherlink.com 1.10,2013-08-29 22:40:00,
2013-08-29 16:55:00,95.5,47.0,25.33,NNW,335,6.0,11.0,19,0.00,,,0.00,weatherlink.com 1.10,2013-08-29 22:55:00,
2013-08-29 17:10:00,94.5,48.0,25.34,North,3,4.0,8.0,20,0.00,,,0.00,weatherlink.com 1.10,2013-08-29 23:10:00,
2013-08-29 17:25:00,94.5,48.0,25.33,NNE,22,3.0,6.0,20,0.00,,,0.00,weatherlink.com 1.10,2013-08-29 23:25:00,
2013-08-29 17:40:00,94.2,49.0,25.34,NE,39,6.0,11.0,21,0.00,,,0.00,weatherlink.com 1.10,2013-08-29 23:40:00,
2013-08-29 17:55:00,91.8,48.0,25.34,North,356,4.0,9.0,22,0.00,,,0.00,weatherlink.com 1.10,2013-08-29 23:55:00,
2013-08-29 18:10:00,89.6,49.0,25.34,NNW,339,3.0,4.0,25,0.00,,,0.00,weatherlink.com 1.10,2013-08-30 00:10:00,
2013-08-29 18:25:00,88.7,49.0,25.34,North,352,4.0,7.0,25,0.00,,,0.00,weatherlink.com 1.10,2013-08-30 00:25:00,
2013-08-29 18:40:00,88.0,50.0,25.34,North,356,2.0,6.0,27,0.00,,,0.00,weatherlink.com 1.10,2013-08-30 00:40:00,
2013-08-29 18:55:00,87.2,51.0,25.34,NNE,17,2.0,5.0,29,0.00,,,0.00,weatherlink.com 1.10,2013-08-30 00:55:00,
2013-08-29 19:10:00,86.9,51.0,25.34,NNE,20,1.0,2.0,29,0.00,,,0.00,weatherlink.com 1.10,2013-08-30 01:10:00,
2013-08-29 19:25:00,85.4,51.0,25.34,NNW,345,1.0,2.0,30,0.00,,,0.00,weatherlink.com 1.10,2013-08-30 01:25:00,
2013-08-29 19:40:00,84.3,51.0,25.35,North,359,0.0,2.0,31,0.00,,,0.00,weatherlink.com 1.10,2013-08-30 01:40:00,
2013-08-29 19:55:00,83.7,49.0,25.36,North,1,1.0,1.0,30,0.00,,,0.00,weatherlink.com 1.10,2013-08-30 01:55:00,
2013-08-29 20:10:00,82.8,50.0,25.36,NNW,335,0.0,2.0,32,0.00,,,0.00,weatherlink.com 1.10,2013-08-30 02:10:00,
2013-08-29 20:25:00,81.0,51.0,25.36,NNW,335,0.0,0.0,35,0.00,,,0.00,weatherlink.com 1.10,2013-08-30 02:25:00,
2013-08-29 20:40:00,79.7,50.0,25.36,NNW,335,0.0,0.0,36,0.00,,,0.00,weatherlink.com 1.10,2013-08-30 02:40:00,
2013-08-29 20:55:00,78.9,52.0,25.37,SW,221,0.0,1.0,39,0.00,,,0.00,weatherlink.com 1.10,2013-08-30 02:55:00,
2013-08-29 21:10:00,78.7,52.0,25.37,SW,222,0.0,1.0,39,0.00,,,0.00,weatherlink.com 1.10,2013-08-30 03:10:00,
2013-08-29 21:25:00,78.5,51.0,25.37,SW,221,0.0,1.0,39,0.00,,,0.00,weatherlink.com 1.10,2013-08-30 03:25:00,
2013-08-29 21:40:00,77.9,51.0,25.37,SW,221,0.0,1.0,39,0.00,,,0.00,weatherlink.com 1.10,2013-08-30 03:40:00,
2013-08-29 21:55:00,77.2,51.0,25.37,SW,221,0.0,0.0,40,0.00,,,0.00,weatherlink.com 1.10,2013-08-30 03:55:00,
2013-08-29 22:10:00,76.4,50.0,25.37,SW,222,0.0,0.0,39,0.00,,,0.00,weatherlink.com 1.10,2013-08-30 04:10:00,
2013-08-29 22:25:00,75.4,51.0,25.37,SW,222,0.0,0.0,42,0.00,,,0.00,weatherlink.com 1.10,2013-08-30 04:25:00,
2013-08-29 22:40:00,74.6,50.0,25.37,SW,222,0.0,0.0,42,0.00,,,0.00,weatherlink.com 1.10,2013-08-30 04:40:00,
2013-08-29 22:55:00,74.6,51.0,25.38,SW,222,0.0,1.0,43,0.00,,,0.00,weatherlink.com 1.10,2013-08-30 04:55:00,
2013-08-29 23:10:00,73.9,51.0,25.37,SW,221,0.0,1.0,45,0.00,,,0.00,weatherlink.com 1.10,2013-08-30 05:10:00,
2013-08-29 23:25:00,73.0,51.0,25.38,ESE,114,0.0,1.0,47,0.00,,,0.00,weatherlink.com 1.10,2013-08-30 05:25:00,
2013-08-29 23:40:00,73.4,52.0,25.38,ESE,119,0.0,1.0,47,0.00,,,0.00,weatherlink.com 1.10,2013-08-30 05:40:00,
2013-08-29 23:55:00,73.0,52.0,25.38,ESE,120,0.0,2.0,48,0.00,,,0.00,weatherlink.com 1.10,2013-08-30 05:55:00,